DW6957 Weather Reports


time (UTC)temp
C
wind
direction
speed
KPH
gust
KPH
rain 1hr
cm
rain 24hr
cm
rain mn
cm
humidity
%
barometer
mb
20260505140641 8 360 24.1 32.2 0.00 0.00 0.00 69 1013.1
20260505140558 8 360 24.1 32.2 0.00 0.00 0.00 69 1013.1
20260505140453 8 360 22.5 32.2 0.00 0.00 0.00 69 1013.1
20260505140330 8 360 22.5 32.2 0.00 0.00 0.00 69 1013.1
20260505140226 8 360 24.1 32.2 0.00 0.00 0.00 69 1013.1
20260505140124 8 360 24.1 32.2 0.00 0.00 0.00 69 1013.0
20260505130251 8 360 20.9 30.6 0.00 0.00 0.00 72 1012.1
20260505130127 8 360 20.9 30.6 0.00 0.00 0.00 72 1012.0
20260505124922 8 360 22.5 30.6 0.00 0.00 0.00 68 1011.7
20260505124821 8 360 22.5 30.6 0.00 0.00 0.00 68 1011.7
20260505124720 8 360 24.1 30.6 0.00 0.00 0.00 68 1011.8
20260505124640 8 360 22.5 30.6 0.00 0.00 0.00 68 1011.7
20260505124532 8 360 20.9 30.6 0.00 0.00 0.00 68 1011.7
20260505124430 8 360 20.9 30.6 0.00 0.00 0.00 68 1011.7
20260505124331 8 360 24.1 30.6 0.00 0.00 0.00 68 1011.7
20260505124232 8 360 24.1 30.6 0.00 0.00 0.00 68 1011.7
20260505124129 8 360 25.7 30.6 0.00 0.00 0.00 68 1011.7
20260505124025 8 360 25.7 30.6 0.00 0.00 0.00 68 1011.8
20260505123926 8 360 20.9 29.0 0.00 0.00 0.00 68 1011.7
20260505123824 8 360 19.3 30.6 0.00 0.00 0.00 68 1011.7
20260505123720 8 360 19.3 30.6 0.00 0.00 0.00 68 1011.8
20260505123623 8 360 22.5 30.6 0.00 0.00 0.00 68 1011.7
20260505123517 8 360 24.1 30.6 0.00 0.00 0.00 68 1011.7
20260505123421 8 360 22.5 30.6 0.00 0.00 0.00 68 1011.6
20260505123323 8 360 22.5 30.6 0.00 0.00 0.00 68 1011.6
20260505123219 8 360 24.1 30.6 0.00 0.00 0.00 67 1011.6
20260505123136 8 360 24.1 30.6 0.00 0.00 0.00 67 1011.5
20260505123050 8 360 24.1 30.6 0.00 0.00 0.00 67 1011.5
20260505122929 8 360 22.5 30.6 0.00 0.00 0.00 67 1011.4
20260505122827 8 360 22.5 30.6 0.00 0.00 0.00 67 1011.4
20260505122731 8 360 20.9 30.6 0.00 0.00 0.00 66 1011.4
20260505122627 8 360 24.1 30.6 0.00 0.00 0.00 66 1011.3
20260505122541 8 360 24.1 30.6 0.00 0.00 0.00 66 1011.3
20260505122417 8 360 22.5 29.0 0.00 0.00 0.00 66 1011.2
20260505122317 8 360 20.9 29.0 0.00 0.00 0.00 65 1011.2
20260505122217 8 360 19.3 29.0 0.00 0.00 0.00 65 1011.2
20260505122135 8 360 17.7 29.0 0.00 0.00 0.00 65 1011.2
20260505122032 8 360 19.3 29.0 0.00 0.00 0.00 65 1011.2
20260505121949 8 360 20.9 29.0 0.00 0.00 0.00 65 1011.2
20260505121848 8 360 20.9 29.0 0.00 0.00 0.00 65 1011.2
20260505121723 8 360 20.9 29.0 0.00 0.00 0.00 65 1011.2
20260505121624 8 360 20.9 29.0 0.00 0.00 0.00 65 1011.1
20260505121517 8 360 20.9 29.0 0.00 0.00 0.00 65 1011.1
20260505121414 8 360 20.9 29.0 0.00 0.00 0.00 65 1011.0
20260505121334 8 360 19.3 29.0 0.00 0.00 0.00 65 1011.0
20260505121231 8 360 20.9 29.0 0.00 0.00 0.00 65 1011.0
20260505121129 8 360 22.5 32.2 0.00 0.00 0.00 65 1011.0
20260505121024 8 360 20.9 32.2 0.00 0.00 0.00 65 1011.1
20260505120949 8 360 19.3 32.2 0.00 0.00 0.00 65 1011.1
20260505120825 8 360 19.3 32.2 0.00 0.00 0.00 65 1011.0
20260505120725 8 360 20.9 32.2 0.00 0.00 0.00 65 1011.0
20260505120627 8 360 20.9 32.2 0.00 0.00 0.00 65 1011.0
20260505120521 8 360 20.9 32.2 0.00 0.00 0.00 65 1011.0
20260505120419 8 360 20.9 32.2 0.00 0.00 0.00 65 1010.9
20260505120337 8 360 22.5 32.2 0.00 0.00 0.00 65 1010.9
20260505120253 8 360 24.1 32.2 0.00 0.00 0.00 65 1010.9
20260505120116 8 360 24.1 32.2 0.00 0.00 0.00 65 1010.9
20260505120032 8 360 22.5 32.2 0.00 0.00 0.00 65 1011.0
20260505115929 8 360 22.5 32.2 0.00 0.00 0.00 65 1010.9
20260505115827 8 360 22.5 33.8 0.00 0.00 0.00 65 1010.9
20260505115724 8 360 25.7 33.8 0.00 0.00 0.00 65 1011.0
20260505115622 8 360 25.7 33.8 0.00 0.00 0.00 65 1010.9
20260505115517 8 360 25.7 33.8 0.00 0.00 0.00 65 1010.9
20260505115415 8 360 22.5 33.8 0.00 0.00 0.00 65 1010.9
20260505115324 8 360 22.5 33.8 0.00 0.00 0.00 65 1010.9
20260505115220 8 360 20.9 33.8 0.00 0.00 0.00 65 1010.9
20260505115118 8 360 22.5 33.8 0.00 0.00 0.00 65 1010.9
20260505115032 8 360 22.5 33.8 0.00 0.00 0.00 64 1010.9
20260505114953 8 360 24.1 33.8 0.00 0.00 0.00 64 1011.0
20260505114833 8 360 24.1 33.8 0.00 0.00 0.00 64 1011.0
20260505114729 8 360 25.7 33.8 0.00 0.00 0.00 64 1010.9
20260505114647 8 360 22.5 33.8 0.00 0.00 0.00 64 1010.9
20260505114540 8 360 22.5 33.8 0.00 0.00 0.00 64 1010.9
20260505114420 8 360 25.7 33.8 0.00 0.00 0.00 64 1010.8
20260505114338 8 360 27.4 33.8 0.00 0.00 0.00 64 1010.7
20260505114217 8 360 25.7 32.2 0.00 0.00 0.00 64 1010.7
20260505114118 8 360 22.5 32.2 0.00 0.00 0.00 64 1010.7
20260505114036 8 360 20.9 32.2 0.00 0.00 0.00 64 1010.7
20260505113932 8 360 19.3 32.2 0.00 0.00 0.00 64 1010.7
20260505113834 8 360 19.3 32.2 0.00 0.00 0.00 64 1010.7
20260505113731 8 360 20.9 32.2 0.00 0.00 0.00 64 1010.7
20260505113634 9 360 22.5 32.2 0.00 0.00 0.00 64 1010.7
20260505113528 9 360 20.9 32.2 0.00 0.00 0.00 64 1010.6
20260505113430 9 360 22.5 32.2 0.00 0.00 0.00 63 1010.5
20260505113329 9 360 24.1 32.2 0.00 0.00 0.00 63 1010.4
20260505113225 9 360 25.7 32.2 0.00 0.00 0.00 63 1010.3
20260505113125 9 360 25.7 32.2 0.00 0.00 0.00 63 1010.3
20260505113019 9 360 25.7 32.2 0.00 0.00 0.00 63 1010.2
20260505112924 9 360 24.1 32.2 0.00 0.00 0.00 63 1010.1
20260505112844 9 360 24.1 32.2 0.00 0.00 0.00 62 1010.1
20260505112719 9 360 24.1 33.8 0.00 0.00 0.00 62 1010.1
20260505112640 9 360 20.9 37.0 0.00 0.00 0.00 62 1010.1
20260505112535 9 360 20.9 37.0 0.00 0.00 0.00 62 1010.1
20260505112433 9 360 24.1 37.0 0.00 0.00 0.00 62 1010.1
20260505112352 9 360 24.1 37.0 0.00 0.00 0.00 62 1010.1
20260505112227 9 360 22.5 37.0 0.00 0.00 0.00 62 1010.1
20260505112124 9 360 19.3 40.2 0.00 0.00 0.00 62 1010.1
20260505112023 9 360 20.9 40.2 0.00 0.00 0.00 62 1010.0
20260505111920 9 360 24.1 40.2 0.00 0.00 0.00 62 1010.0
20260505111837 9 360 29.0 40.2 0.00 0.00 0.00 62 1010.0
20260505111716 9 360 29.0 40.2 0.00 0.00 0.00 62 1010.0
20260505111633 9 360 29.0 40.2 0.00 0.00 0.00 62 1009.9
20260505111530 9 360 30.6 40.2 0.00 0.00 0.00 62 1009.9
20260505111427 9 360 30.6 40.2 0.00 0.00 0.00 61 1009.8
20260505111330 9 360 29.0 40.2 0.00 0.00 0.00 61 1009.8
20260505111231 9 360 27.4 40.2 0.00 0.00 0.00 61 1009.7
20260505111148 9 360 29.0 38.6 0.00 0.00 0.00 61 1009.8
20260505111045 9 360 30.6 38.6 0.00 0.00 0.00 61 1009.8
20260505110923 9 360 29.0 38.6 0.00 0.00 0.00 61 1009.7
20260505110822 9 360 27.4 37.0 0.00 0.00 0.00 60 1009.7
20260505110721 9 360 29.0 38.6 0.00 0.00 0.00 60 1009.8
20260505110618 9 360 29.0 40.2 0.00 0.00 0.00 60 1009.7
20260505110516 9 360 25.7 40.2 0.00 0.00 0.00 60 1009.7
20260505110433 9 360 25.7 40.2 0.00 0.00 0.00 60 1009.7
20260505110335 9 360 27.4 40.2 0.00 0.00 0.00 60 1009.7
20260505110212 9 360 29.0 40.2 0.00 0.00 0.00 60 1009.6
20260505110133 9 360 29.0 40.2 0.00 0.00 0.00 60 1009.6
20260505102116 9 360 27.4 37.0 0.00 0.00 0.00 59 1009.0
20260505102030 9 360 27.4 37.0 0.00 0.00 0.00 58 1009.0
20260505101928 9 360 27.4 37.0 0.00 0.00 0.00 59 1009.0
20260505101825 9 360 24.1 37.0 0.00 0.00 0.00 58 1009.0
20260505101723 9 360 22.5 33.8 0.00 0.00 0.00 58 1009.0
20260505101641 9 360 24.1 33.8 0.00 0.00 0.00 58 1009.0
20260505101537 9 360 25.7 33.8 0.00 0.00 0.00 58 1009.0
20260505101455 10 360 25.7 33.8 0.00 0.00 0.00 58 1008.9
20260505101356 10 360 22.5 33.8 0.00 0.00 0.00 58 1008.8
20260505101233 10 360 20.9 32.2 0.00 0.00 0.00 58 1008.8
20260505101152 10 360 22.5 32.2 0.00 0.00 0.00 58 1008.9
20260505101025 10 360 20.9 37.0 0.00 0.00 0.00 58 1008.8
20260505100927 10 360 22.5 37.0 0.00 0.00 0.00 57 1008.8
20260505100828 10 360 22.5 37.0 0.00 0.00 0.00 57 1008.8
20260505100731 10 360 20.9 37.0 0.00 0.00 0.00 57 1008.8
20260505100652 10 360 20.9 37.0 0.00 0.00 0.00 57 1008.8
20260505100549 10 360 22.5 37.0 0.00 0.00 0.00 57 1008.8
20260505100429 10 360 22.5 37.0 0.00 0.00 0.00 57 1008.8
20260505100334 10 360 22.5 37.0 0.00 0.00 0.00 57 1008.8
20260505100230 10 360 25.7 38.6 0.00 0.00 0.00 57 1008.8
20260505100126 10 360 27.4 38.6 0.00 0.00 0.00 57 1008.8
20260505100020 10 360 29.0 38.6 0.00 0.00 0.00 57 1008.8
20260505095917 10 360 29.0 38.6 0.00 0.00 0.00 57 1008.8
20260505095836 10 360 27.4 38.6 0.00 0.00 0.00 57 1008.8
20260505095736 10 360 27.4 38.6 0.00 0.00 0.00 57 1008.8
20260505095639 10 360 25.7 38.6 0.00 0.00 0.00 57 1008.8
20260505095538 10 360 29.0 38.6 0.00 0.00 0.00 57 1008.9
20260505095433 10 360 29.0 38.6 0.00 0.00 0.00 57 1008.9
20260505095354 10 360 25.7 38.6 0.00 0.00 0.00 57 1008.9
20260505095230 10 360 22.5 37.0 0.00 0.00 0.00 56 1008.9
20260505095128 10 360 22.5 38.6 0.00 0.00 0.00 56 1009.0
20260505095021 10 360 25.7 38.6 0.00 0.00 0.00 56 1009.0
20260505094939 10 360 27.4 38.6 0.00 0.00 0.00 56 1009.0
20260505094821 10 360 27.4 38.6 0.00 0.00 0.00 56 1009.0
20260505094738 10 360 27.4 38.6 0.00 0.00 0.00 56 1009.0
20260505094634 10 360 25.7 38.6 0.00 0.00 0.00 56 1009.1
20260505094529 10 360 27.4 48.3 0.00 0.00 0.00 56 1009.0
20260505094427 10 360 29.0 48.3 0.00 0.00 0.00 56 1009.0
20260505094330 10 360 32.2 48.3 0.00 0.00 0.00 56 1009.0
20260505094227 10 360 32.2 48.3 0.00 0.00 0.00 56 1009.0
20260505094125 10 360 30.6 48.3 0.00 0.00 0.00 56 1008.9
20260505094021 10 360 30.6 48.3 0.00 0.00 0.00 56 1009.0
20260505093945 10 360 32.2 48.3 0.00 0.00 0.00 56 1009.1
20260505093843 10 360 32.2 48.3 0.00 0.00 0.00 56 1009.1
20260505093719 10 360 35.4 48.3 0.00 0.00 0.00 56 1009.1
20260505093620 10 360 32.2 48.3 0.00 0.00 0.00 56 1009.1
20260505093534 10 360 27.4 48.3 0.00 0.00 0.00 56 1009.0
20260505093431 10 360 24.1 38.6 0.00 0.00 0.00 56 1009.1
20260505093330 10 360 22.5 38.6 0.00 0.00 0.00 55 1009.1
20260505093226 10 360 20.9 41.8 0.00 0.00 0.00 55 1009.1
20260505093127 10 360 19.3 41.8 0.00 0.00 0.00 55 1009.1
20260505093025 10 360 20.9 41.8 0.00 0.00 0.00 55 1009.1
20260505092927 10 360 22.5 41.8 0.00 0.00 0.00 55 1009.0
20260505092824 10 360 24.1 41.8 0.00 0.00 0.00 55 1009.0
20260505092724 10 360 25.7 41.8 0.00 0.00 0.00 55 1009.1
20260505092640 10 360 27.4 41.8 0.00 0.00 0.00 54 1009.2
20260505092513 10 360 30.6 41.8 0.00 0.00 0.00 54 1009.2
20260505092435 10 360 30.6 41.8 0.00 0.00 0.00 55 1009.1
20260505092317 10 360 30.6 41.8 0.00 0.00 0.00 54 1009.1
20260505092234 10 360 29.0 41.8 0.00 0.00 0.00 54 1009.2
20260505092130 10 360 30.6 41.8 0.00 0.00 0.00 54 1009.2
20260505092024 10 360 29.0 41.8 0.00 0.00 0.00 54 1009.1
20260505091921 10 360 29.0 41.8 0.00 0.00 0.00 54 1009.1
20260505091820 10 360 29.0 41.8 0.00 0.00 0.00 54 1009.1
20260505091737 10 360 30.6 41.8 0.00 0.00 0.00 54 1009.1
20260505091617 10 360 30.6 41.8 0.00 0.00 0.00 54 1009.0
20260505091516 10 360 29.0 45.1 0.00 0.00 0.00 54 1009.1
20260505091434 10 360 30.6 45.1 0.00 0.00 0.00 54 1009.1
20260505091333 10 360 29.0 45.1 0.00 0.00 0.00 54 1009.0
20260505091230 10 360 27.4 45.1 0.00 0.00 0.00 54 1009.0
20260505091129 10 360 27.4 45.1 0.00 0.00 0.00 54 1008.9
20260505091023 10 360 27.4 45.1 0.00 0.00 0.00 54 1008.9
20260505090940 10 360 27.4 45.1 0.00 0.00 0.00 54 1008.9
20260505090818 10 360 29.0 45.1 0.00 0.00 0.00 54 1008.8
20260505090718 10 360 33.8 45.1 0.00 0.00 0.00 54 1008.8
20260505090621 10 360 33.8 45.1 0.00 0.00 0.00 54 1008.7
20260505090535 10 360 33.8 45.1 0.00 0.00 0.00 54 1008.7
20260505090433 10 360 33.8 45.1 0.00 0.00 0.00 54 1008.7
20260505090332 10 360 35.4 45.1 0.00 0.00 0.00 54 1008.7
20260505090228 10 360 32.2 45.1 0.00 0.00 0.00 54 1008.6
20260505090126 10 360 29.0 40.2 0.00 0.00 0.00 55 1008.7
20260505090051 10 360 30.6 40.2 0.00 0.00 0.00 54 1008.6
20260505085931 10 360 32.2 40.2 0.00 0.00 0.00 55 1008.7
20260505085851 10 360 30.6 40.2 0.00 0.00 0.00 55 1008.5
20260505085750 10 360 30.6 43.5 0.00 0.00 0.00 55 1008.7
20260505085628 10 360 29.0 43.5 0.00 0.00 0.00 55 1008.6
20260505085523 10 360 27.4 43.5 0.00 0.00 0.00 55 1008.6
20260505085445 10 360 25.7 43.5 0.00 0.00 0.00 55 1008.5
20260505085321 10 360 24.1 43.5 0.00 0.00 0.00 54 1008.5
20260505085240 10 360 25.7 43.5 0.00 0.00 0.00 54 1008.5
20260505085120 10 360 27.4 43.5 0.00 0.00 0.00 54 1008.5
20260505085034 10 360 29.0 43.5 0.00 0.00 0.00 54 1008.5
20260505084933 10 360 30.6 43.5 0.00 0.00 0.00 54 1008.6
20260505084832 10 360 32.2 43.5 0.00 0.00 0.00 54 1008.5
20260505084747 10 360 32.2 43.5 0.00 0.00 0.00 54 1008.5
20260505084626 10 360 30.6 43.5 0.00 0.00 0.00 54 1008.5
20260505084519 10 360 30.6 45.1 0.00 0.00 0.00 54 1008.5
20260505084419 10 360 32.2 45.1 0.00 0.00 0.00 54 1008.4
20260505084321 10 360 33.8 45.1 0.00 0.00 0.00 54 1008.4
20260505084222 10 360 32.2 45.1 0.00 0.00 0.00 54 1008.4
20260505084121 10 360 32.2 45.1 0.00 0.00 0.00 54 1008.3
20260505084018 10 360 35.4 45.1 0.00 0.00 0.00 54 1008.4
20260505083935 10 360 35.4 45.1 0.00 0.00 0.00 54 1008.4
20260505083835 10 360 32.2 45.1 0.00 0.00 0.00 54 1008.4
20260505083734 10 360 30.6 45.1 0.00 0.00 0.00 54 1008.3
20260505083651 11 360 32.2 48.3 0.00 0.00 0.00 53 1008.3
20260505083527 11 360 32.2 48.3 0.00 0.00 0.00 53 1008.3
20260505083444 11 360 33.8 48.3 0.00 0.00 0.00 53 1008.2
20260505083341 11 360 35.4 48.3 0.00 0.00 0.00 53 1008.1
20260505083239 11 360 37.0 48.3 0.00 0.00 0.00 53 1008.1
20260505083202 11 360 37.0 48.3 0.00 0.00 0.00 53 1008.1
20260505083033 11 360 37.0 49.9 0.00 0.00 0.00 53 1008.1
20260505082929 11 360 37.0 53.1 0.00 0.00 0.00 53 1008.1
20260505082851 11 360 37.0 53.1 0.00 0.00 0.00 53 1008.1
20260505082728 11 360 35.4 53.1 0.00 0.00 0.00 53 1008.1
20260505082626 11 360 33.8 57.9 0.00 0.00 0.00 53 1008.1
20260505082542 11 360 35.4 57.9 0.00 0.00 0.00 53 1008.1
20260505082425 11 360 37.0 57.9 0.00 0.00 0.00 53 1008.1
20260505082322 11 360 37.0 57.9 0.00 0.00 0.00 53 1008.0
20260505082219 11 360 37.0 57.9 0.00 0.00 0.00 53 1008.0
20260505082117 11 360 40.2 57.9 0.00 0.00 0.00 53 1008.0
20260505082031 11 360 40.2 57.9 0.00 0.00 0.00 53 1008.0
20260505081928 11 360 40.2 57.9 0.00 0.00 0.00 53 1007.9
20260505081829 11 360 41.8 57.9 0.00 0.00 0.00 53 1008.0
20260505081729 11 360 45.1 57.9 0.00 0.00 0.00 54 1007.8
20260505081629 11 360 41.8 56.3 0.00 0.00 0.00 54 1007.8
20260505081526 11 360 38.6 56.3 0.00 0.00 0.00 54 1007.6
20260505081423 11 360 33.8 45.1 0.00 0.00 0.00 55 1007.6
20260505081322 11 360 32.2 45.1 0.00 0.00 0.00 55 1007.5
20260505081239 11 360 30.6 45.1 0.00 0.00 0.00 55 1007.6
20260505081119 11 360 30.6 45.1 0.00 0.00 0.00 55 1007.5
20260505081034 11 360 30.6 45.1 0.00 0.00 0.00 55 1007.5
20260505080916 11 360 33.8 45.1 0.00 0.00 0.00 55 1007.5
20260505080835 11 360 35.4 45.1 0.00 0.00 0.00 55 1007.4
20260505080731 11 360 33.8 45.1 0.00 0.00 0.00 55 1007.5
20260505080628 11 360 32.2 45.1 0.00 0.00 0.00 54 1007.5
20260505080522 11 360 33.8 45.1 0.00 0.00 0.00 54 1007.5
20260505080438 11 360 32.2 45.1 0.00 0.00 0.00 54 1007.5
20260505080336 11 360 30.6 45.1 0.00 0.00 0.00 54 1007.6
20260505080216 11 360 27.4 37.0 0.00 0.00 0.00 54 1007.6
20260505080134 11 360 27.4 37.0 0.00 0.00 0.00 54 1007.6
20260505080029 11 360 27.4 37.0 0.00 0.00 0.00 54 1007.7
20260505075926 11 360 27.4 35.4 0.00 0.00 0.00 54 1007.7
20260505075824 11 360 29.0 38.6 0.00 0.00 0.00 54 1007.7
20260505075741 11 360 29.0 40.2 0.00 0.00 0.00 54 1007.7
20260505075618 12 360 27.4 40.2 0.00 0.00 0.00 54 1007.6
20260505075531 12 360 25.7 40.2 0.00 0.00 0.00 53 1007.7
20260505075449 12 360 27.4 41.8 0.00 0.00 0.00 53 1007.6
20260505075332 12 360 27.4 41.8 0.00 0.00 0.00 53 1007.8
20260505075232 12 360 27.4 51.5 0.00 0.00 0.00 53 1007.8
20260505075149 12 360 29.0 51.5 0.00 0.00 0.00 53 1007.8
20260505075023 12 360 30.6 51.5 0.00 0.00 0.00 53 1007.7
20260505074921 12 360 32.2 51.5 0.00 0.00 0.00 53 1007.7
20260505074820 12 360 32.2 51.5 0.00 0.00 0.00 53 1007.7
20260505074737 12 360 30.6 51.5 0.00 0.00 0.00 53 1007.7
20260505074656 12 360 30.6 51.5 0.00 0.00 0.00 53 1007.7
20260505074536 12 360 35.4 51.5 0.00 0.00 0.00 53 1007.6
20260505074433 12 360 35.4 51.5 0.00 0.00 0.00 53 1007.6
20260505074332 12 360 32.2 46.7 0.00 0.00 0.00 53 1007.6
20260505074228 12 360 30.6 46.7 0.00 0.00 0.00 53 1007.5
20260505074130 12 360 32.2 46.7 0.00 0.00 0.00 54 1007.5
20260505074044 12 360 29.0 46.7 0.00 0.00 0.00 54 1007.5
20260505073923 12 360 29.0 46.7 0.00 0.00 0.00 54 1007.4
20260505073844 12 360 30.6 46.7 0.00 0.00 0.00 53 1007.5
20260505073720 12 360 32.2 46.7 0.00 0.00 0.00 53 1007.4
20260505073621 12 360 35.4 48.3 0.00 0.00 0.00 53 1007.2
20260505073535 12 360 32.2 48.3 0.00 0.00 0.00 53 1007.3
20260505073416 12 360 33.8 48.3 0.00 0.00 0.00 53 1007.1
20260505073335 12 360 33.8 48.3 0.00 0.00 0.00 53 1007.1
20260505073232 12 360 33.8 48.3 0.00 0.00 0.00 53 1007.1
20260505073130 12 360 32.2 48.3 0.00 0.00 0.00 53 1007.0
20260505073024 12 360 35.4 48.3 0.00 0.00 0.00 53 1007.1
20260505072926 12 360 37.0 48.3 0.00 0.00 0.00 53 1007.0
20260505072828 12 360 37.0 48.3 0.00 0.00 0.00 54 1007.0
20260505072725 12 360 33.8 48.3 0.00 0.00 0.00 54 1006.9
20260505072621 12 360 32.2 45.1 0.00 0.00 0.00 54 1006.9
20260505072519 12 360 32.2 43.5 0.00 0.00 0.00 54 1006.8
20260505072437 12 360 33.8 43.5 0.00 0.00 0.00 54 1006.8
20260505072356 12 360 32.2 43.5 0.00 0.00 0.00 54 1006.8
20260505072233 12 360 33.8 43.5 0.00 0.00 0.00 54 1006.8
20260505072117 12 360 33.8 43.5 0.00 0.00 0.00 54 1006.8
20260505072014 12 360 32.2 46.7 0.00 0.00 0.00 54 1006.8
20260505071916 12 360 32.2 46.7 0.00 0.00 0.00 54 1006.8
20260505071818 12 360 32.2 46.7 0.00 0.00 0.00 54 1006.8
20260505071734 12 360 30.6 46.7 0.00 0.00 0.00 54 1006.8
20260505071634 12 360 30.6 46.7 0.00 0.00 0.00 54 1006.7
20260505071527 12 360 33.8 48.3 0.00 0.00 0.00 54 1006.8
20260505071425 12 360 33.8 48.3 0.00 0.00 0.00 54 1006.7
20260505071343 13 360 33.8 48.3 0.00 0.00 0.00 54 1006.7
20260505071242 13 360 32.2 48.3 0.00 0.00 0.00 54 1006.5
20260505071200 13 360 33.8 48.3 0.00 0.00 0.00 54 1006.6
20260505071035 13 360 33.8 48.3 0.00 0.00 0.00 54 1006.6
20260505070931 13 360 32.2 48.3 0.00 0.00 0.00 54 1006.6
20260505070832 13 360 32.2 48.3 0.00 0.00 0.00 54 1006.6
20260505070728 13 360 35.4 48.3 0.00 0.00 0.00 54 1006.6
20260505070625 13 360 35.4 48.3 0.00 0.00 0.00 54 1006.7
20260505070520 13 360 30.6 43.5 0.00 0.00 0.00 54 1006.7
20260505070438 13 360 29.0 40.2 0.00 0.00 0.00 54 1006.6
20260505070321 13 360 30.6 40.2 0.00 0.00 0.00 54 1006.7
20260505070221 13 360 30.6 43.5 0.00 0.00 0.00 55 1006.6
20260505070122 13 360 30.6 43.5 0.00 0.00 0.00 55 1006.5
20260505070016 13 360 29.0 43.5 0.00 0.00 0.00 55 1006.5
20260505065934 13 360 30.6 43.5 0.00 0.00 0.00 55 1006.5
20260505065833 13 360 32.2 43.5 0.00 0.00 0.00 55 1006.4
20260505065752 13 360 32.2 45.1 0.00 0.00 0.00 55 1006.4
20260505065629 13 360 32.2 45.1 0.00 0.00 0.00 55 1006.4
20260505065526 13 360 30.6 45.1 0.00 0.00 0.00 55 1006.2
20260505065424 13 360 30.6 45.1 0.00 0.00 0.00 55 1006.2
20260505065326 13 360 32.2 45.1 0.00 0.00 0.00 55 1006.2
20260505065223 13 360 32.2 48.3 0.00 0.00 0.00 55 1006.2
20260505065125 13 360 32.2 48.3 0.00 0.00 0.00 55 1006.2
20260505065039 13 360 29.0 48.3 0.00 0.00 0.00 55 1006.2
20260505064956 13 360 29.0 49.9 0.00 0.00 0.00 55 1006.2
20260505064853 13 360 30.6 49.9 0.00 0.00 0.00 54 1006.1
20260505064729 13 360 30.6 49.9 0.00 0.00 0.00 54 1006.1
20260505064634 13 360 33.8 49.9 0.00 0.00 0.00 54 1006.1
20260505064550 13 360 33.8 49.9 0.00 0.00 0.00 54 1005.9
20260505064450 13 360 33.8 49.9 0.00 0.00 0.00 54 1005.9
20260505064327 13 360 33.8 49.9 0.00 0.00 0.00 54 1005.8
20260505064224 13 360 35.4 49.9 0.00 0.00 0.00 55 1005.8
20260505064144 13 360 37.0 49.9 0.00 0.00 0.00 55 1005.6
20260505064017 13 360 38.6 49.9 0.00 0.00 0.00 54 1005.6
20260505063915 13 360 37.0 49.9 0.00 0.00 0.00 54 1005.5
20260505063816 13 360 33.8 48.3 0.00 0.00 0.00 55 1005.5
20260505063717 13 360 35.4 48.3 0.00 0.00 0.00 55 1005.5
20260505063634 13 360 35.4 48.3 0.00 0.00 0.00 55 1005.5
20260505063530 13 360 35.4 45.1 0.00 0.00 0.00 55 1005.5
20260505063447 13 360 35.4 45.1 0.00 0.00 0.00 55 1005.5
20260505063327 13 360 33.8 49.9 0.00 0.00 0.00 55 1005.5
20260505063244 13 360 33.8 49.9 0.00 0.00 0.00 55 1005.5
20260505063202 13 360 32.2 49.9 0.00 0.00 0.00 56 1005.5
20260505063058 13 360 32.2 49.9 0.00 0.00 0.00 55 1005.5
20260505062934 14 360 30.6 51.5 0.00 0.00 0.00 56 1005.5
20260505062834 14 360 32.2 51.5 0.00 0.00 0.00 56 1005.5
20260505062734 14 360 33.8 51.5 0.00 0.00 0.00 56 1005.4
20260505062633 14 360 37.0 51.5 0.00 0.00 0.00 56 1005.3
20260505062526 14 360 35.4 51.5 0.00 0.00 0.00 56 1005.3
20260505062424 14 360 32.2 53.1 0.00 0.00 0.00 56 1005.2
20260505062324 14 360 32.2 53.1 0.00 0.00 0.00 56 1005.3
20260505062221 14 360 38.6 53.1 0.00 0.00 0.00 56 1005.3
20260505062119 14 360 37.0 53.1 0.00 0.00 0.00 56 1005.2
20260505062017 14 360 37.0 53.1 0.00 0.00 0.00 56 1005.2
20260505061914 14 360 37.0 53.1 0.00 0.00 0.00 56 1005.3
20260505061836 14 360 35.4 53.1 0.00 0.00 0.00 56 1005.3
20260505061752 14 360 35.4 53.1 0.00 0.00 0.00 56 1005.3
20260505061632 14 360 35.4 53.1 0.00 0.00 0.00 56 1005.3
20260505061524 14 360 38.6 53.1 0.00 0.00 0.00 57 1005.3
20260505061421 14 360 40.2 53.1 0.00 0.00 0.00 57 1005.3
20260505061322 14 360 35.4 46.7 0.00 0.00 0.00 56 1005.2
20260505061223 14 360 32.2 46.7 0.00 0.00 0.00 56 1005.2
20260505061121 14 360 32.2 46.7 0.00 0.00 0.00 56 1005.3
20260505061017 14 360 30.6 46.7 0.00 0.00 0.00 56 1005.2
20260505060935 15 360 30.6 46.7 0.00 0.00 0.00 56 1005.2
20260505060834 15 360 33.8 46.7 0.00 0.00 0.00 56 1005.2
20260505060731 15 360 35.4 46.7 0.00 0.00 0.00 56 1005.1
20260505060627 15 360 32.2 46.7 0.00 0.00 0.00 56 1005.0
20260505060525 15 360 32.2 46.7 0.00 0.00 0.00 56 1004.9
20260505060447 15 360 32.2 46.7 0.00 0.00 0.00 55 1004.9
20260505060328 15 360 33.8 46.7 0.00 0.00 0.00 55 1004.9
20260505060227 15 360 35.4 53.1 0.00 0.00 0.00 55 1004.8
20260505060145 15 360 37.0 53.1 0.00 0.00 0.00 55 1004.7
20260505060042 15 360 38.6 53.1 0.00 0.00 0.00 55 1004.6
20260505055930 15 360 37.0 57.9 0.00 0.00 0.00 55 1004.6
20260505055829 15 360 37.0 59.5 0.00 0.00 0.00 55 1004.5
20260505055726 15 360 37.0 59.5 0.00 0.00 0.00 54 1004.5
20260505055627 15 360 33.8 59.5 0.00 0.00 0.00 54 1004.4
20260505055522 15 360 30.6 59.5 0.00 0.00 0.00 54 1004.4
20260505055419 15 360 35.4 59.5 0.00 0.00 0.00 54 1004.3
20260505055320 15 360 40.2 59.5 0.00 0.00 0.00 54 1004.3
20260505055218 15 360 41.8 59.5 0.00 0.00 0.00 54 1004.2
20260505055115 15 360 41.8 59.5 0.00 0.00 0.00 53 1004.2
20260505055029 15 360 46.7 59.5 0.00 0.00 0.00 53 1004.1
20260505054930 15 360 46.7 59.5 0.00 0.00 0.00 53 1004.1
20260505054814 15 360 43.5 57.9 0.00 0.00 0.00 53 1004.0
20260505054734 16 360 43.5 57.9 0.00 0.00 0.00 53 1004.0
20260505054652 16 360 40.2 57.9 0.00 0.00 0.00 52 1003.9
20260505054528 16 360 40.2 57.9 0.00 0.00 0.00 52 1003.9
20260505054425 16 360 40.2 51.5 0.00 0.00 0.00 51 1003.9
20260505054342 16 360 37.0 51.5 0.00 0.00 0.00 51 1003.9
20260505054218 16 360 37.0 51.5 0.00 0.00 0.00 50 1003.9
20260505054135 16 360 38.6 51.5 0.00 0.00 0.00 50 1003.8
20260505054015 16 360 35.4 53.1 0.00 0.00 0.00 49 1003.8
20260505053916 16 360 32.2 53.1 0.00 0.00 0.00 49 1003.7
20260505053835 16 360 32.2 53.1 0.00 0.00 0.00 48 1003.8
20260505053732 16 360 37.0 53.1 0.00 0.00 0.00 48 1003.7
20260505053650 16 360 38.6 53.1 0.00 0.00 0.00 47 1003.7
20260505053526 16 360 38.6 53.1 0.00 0.00 0.00 47 1003.7
20260505053424 16 360 37.0 53.1 0.00 0.00 0.00 47 1003.6
20260505053344 17 360 38.6 53.1 0.00 0.00 0.00 47 1003.6
20260505053227 17 360 40.2 53.1 0.00 0.00 0.00 47 1003.5
20260505053145 17 360 41.8 53.1 0.00 0.00 0.00 46 1003.4
20260505053021 17 360 43.5 59.5 0.00 0.00 0.00 46 1003.4
20260505052922 17 360 43.5 61.2 0.00 0.00 0.00 45 1003.3
20260505052821 17 360 43.5 61.2 0.00 0.00 0.00 45 1003.2
20260505052738 17 360 41.8 61.2 0.00 0.00 0.00 44 1003.2
20260505052638 17 360 40.2 61.2 0.00 0.00 0.00 44 1003.2
20260505052531 17 360 40.2 61.2 0.00 0.00 0.00 43 1003.2
20260505052452 17 360 38.6 61.2 0.00 0.00 0.00 43 1003.2
20260505052351 18 360 40.2 61.2 0.00 0.00 0.00 42 1003.1
20260505052230 18 360 45.1 61.2 0.00 0.00 0.00 41 1003.1
20260505052128 18 360 46.7 61.2 0.00 0.00 0.00 40 1003.1
20260505052024 18 360 46.7 61.2 0.00 0.00 0.00 39 1003.1
20260505051941 18 360 41.8 61.2 0.00 0.00 0.00 38 1003.1
20260505051819 18 360 38.6 57.9 0.00 0.00 0.00 36 1003.1
20260505051723 18 360 37.0 49.9 0.00 0.00 0.00 36 1003.1
20260505051640 18 360 38.6 49.9 0.00 0.00 0.00 35 1003.1
20260505051534 18 360 35.4 49.9 0.00 0.00 0.00 35 1003.1
20260505051429 18 360 33.8 46.7 0.00 0.00 0.00 35 1003.1
20260505051333 18 360 33.8 41.8 0.00 0.00 0.00 35 1003.1
20260505051229 18 360 32.2 38.6 0.00 0.00 0.00 35 1003.2
20260505051125 18 360 29.0 38.6 0.00 0.00 0.00 35 1003.3
20260505051039 18 360 22.5 32.2 0.00 0.00 0.00 35 1003.3
20260505050937 18 360 20.9 30.6 0.00 0.00 0.00 35 1003.3
20260505050834 18 360 20.9 25.7 0.00 0.00 0.00 35 1003.4
20260505050735 18 360 19.3 25.7 0.00 0.00 0.00 35 1003.3
20260505050632 18 360 19.3 25.7 0.00 0.00 0.00 35 1003.3
20260505050526 18 360 17.7 25.7 0.00 0.00 0.00 35 1003.3
20260505050423 18 360 17.7 25.7 0.00 0.00 0.00 35 1003.2
20260505050325 18 360 17.7 25.7 0.00 0.00 0.00 34 1003.1
20260505050243 18 360 17.7 25.7 0.00 0.00 0.00 34 1003.1
20260505050120 18 360 16.1 22.5 0.00 0.00 0.00 34 1003.0
20260505041731 20 80 9.7 14.5 0.00 0.00 0.00 31 1002.3
20260505041630 20 96 11.3 14.5 0.00 0.00 0.00 31 1002.3
20260505041527 20 80 11.3 14.5 0.00 0.00 0.00 32 1002.2
20260505041429 20 76 11.3 14.5 0.00 0.00 0.00 31 1002.2
20260505041328 20 86 11.3 14.5 0.00 0.00 0.00 31 1002.2
20260505041227 20 76 11.3 14.5 0.00 0.00 0.00 31 1002.1
20260505041146 20 74 9.7 12.9 0.00 0.00 0.00 31 1002.2
20260505041017 20 69 6.4 11.3 0.00 0.00 0.00 31 1002.2
20260505040937 20 79 4.8 8.0 0.00 0.00 0.00 31 1002.2
20260505040817 20 76 4.8 6.4 0.00 0.00 0.00 31 1002.3
20260505040733 20 75 3.2 6.4 0.00 0.00 0.00 31 1002.3
20260505040651 20 93 1.6 4.8 0.00 0.00 0.00 30 1002.3
20260505040526 20 70 1.6 6.4 0.00 0.00 0.00 30 1002.3
20260505040427 20 70 0.0 8.0 0.00 0.00 0.00 30 1002.4
20260505040325 20 70 1.6 8.0 0.00 0.00 0.00 30 1002.4
20260505040221 20 70 1.6 11.3 0.00 0.00 0.00 30 1002.5
20260505040138 20 70 1.6 11.3 0.00 0.00 0.00 30 1002.5
20260505040032 20 70 1.6 11.3 0.00 0.00 0.00 30 1002.5
20260505035929 20 70 1.6 11.3 0.00 0.00 0.00 30 1002.5
20260505035829 20 70 3.2 11.3 0.00 0.00 0.00 30 1002.5
20260505035726 20 70 4.8 11.3 0.00 0.00 0.00 30 1002.4
20260505035628 20 70 6.4 12.9 0.00 0.00 0.00 30 1002.4
20260505035526 20 67 6.4 16.1 0.00 0.00 0.00 30 1002.4
20260505035424 20 69 8.0 17.7 0.00 0.00 0.00 30 1002.5
20260505035322 20 78 8.0 19.3 0.00 0.00 0.00 30 1002.4
20260505035219 21 77 8.0 19.3 0.00 0.00 0.00 30 1002.5
20260505035117 21 52 8.0 19.3 0.00 0.00 0.00 29 1002.5
20260505035031 21 48 8.0 19.3 0.00 0.00 0.00 29 1002.5
20260505034934 21 42 8.0 19.3 0.00 0.00 0.00 29 1002.5
20260505034833 21 38 9.7 19.3 0.00 0.00 0.00 29 1002.5
20260505034731 21 48 11.3 24.1 0.00 0.00 0.00 29 1002.5
20260505034628 21 54 14.5 24.1 0.00 0.00 0.00 29 1002.5
20260505034521 21 65 16.1 24.1 0.00 0.00 0.00 29 1002.4
20260505034419 21 71 16.1 24.1 0.00 0.00 0.00 29 1002.4
20260505034319 21 76 16.1 24.1 0.00 0.00 0.00 29 1002.4
20260505034216 21 67 16.1 24.1 0.00 0.00 0.00 29 1002.4
20260505034117 21 72 16.1 27.4 0.00 0.00 0.00 29 1002.4
20260505034032 21 81 16.1 27.4 0.00 0.00 0.00 29 1002.4
20260505033950 21 63 17.7 27.4 0.00 0.00 0.00 29 1002.4
20260505033829 21 55 19.3 27.4 0.00 0.00 0.00 29 1002.4
20260505033726 21 56 19.3 27.4 0.00 0.00 0.00 29 1002.4
20260505033623 21 63 19.3 27.4 0.00 0.00 0.00 29 1002.4
20260505033520 21 67 19.3 27.4 0.00 0.00 0.00 29 1002.4
20260505033418 21 61 19.3 27.4 0.00 0.00 0.00 29 1002.4
20260505033342 21 68 20.9 27.4 0.00 0.00 0.00 29 1002.4
20260505033258 21 64 24.1 27.4 0.00 0.00 0.00 29 1002.4
20260505033154 21 63 25.7 27.4 0.00 0.00 0.00 29 1002.4
20260505033052 21 63 22.5 27.4 0.00 0.00 0.00 29 1002.4
20260505032930 20 65 19.3 24.1 0.00 0.00 0.00 30 1002.5
20260505032849 20 65 19.3 25.7 0.00 0.00 0.00 30 1002.5
20260505032727 20 71 20.9 25.7 0.00 0.00 0.00 30 1002.5
20260505032624 20 65 19.3 25.7 0.00 0.00 0.00 30 1002.4
20260505032518 20 71 17.7 22.5 0.00 0.00 0.00 31 1002.5
20260505032435 20 55 17.7 22.5 0.00 0.00 0.00 31 1002.5
20260505032340 20 65 16.1 22.5 0.00 0.00 0.00 31 1002.5
20260505032236 20 61 14.5 19.3 0.00 0.00 0.00 31 1002.6
20260505032156 20 52 12.9 17.7 0.00 0.00 0.00 31 1002.6
20260505032050 20 36 11.3 16.1 0.00 0.00 0.00 31 1002.6
20260505031949 20 31 11.3 16.1 0.00 0.00 0.00 31 1002.6
20260505031828 20 22 9.7 16.1 0.00 0.00 0.00 31 1002.6
20260505031731 20 45 11.3 16.1 0.00 0.00 0.00 31 1002.5
20260505031629 20 52 11.3 16.1 0.00 0.00 0.00 31 1002.4
20260505031543 20 46 12.9 16.1 0.00 0.00 0.00 31 1002.5
20260505031424 20 49 12.9 16.1 0.00 0.00 0.00 32 1002.5
20260505031323 20 45 11.3 14.5 0.00 0.00 0.00 32 1002.4
20260505031224 20 49 11.3 14.5 0.00 0.00 0.00 32 1002.4
20260505031141 20 38 11.3 14.5 0.00 0.00 0.00 32 1002.4
20260505031056 20 47 9.7 14.5 0.00 0.00 0.00 32 1002.4
20260505030934 20 37 9.7 14.5 0.00 0.00 0.00 32 1002.3
20260505030831 20 48 9.7 14.5 0.00 0.00 0.00 32 1002.3
20260505030727 20 54 11.3 14.5 0.00 0.00 0.00 32 1002.3
20260505030624 20 47 11.3 14.5 0.00 0.00 0.00 32 1002.3
20260505030541 20 47 12.9 14.5 0.00 0.00 0.00 32 1002.3
20260505030421 20 36 12.9 14.5 0.00 0.00 0.00 33 1002.2
20260505030323 19 50 12.9 14.5 0.00 0.00 0.00 33 1002.2
20260505030219 19 37 12.9 14.5 0.00 0.00 0.00 33 1002.3
20260505030120 19 37 12.9 14.5 0.00 0.00 0.00 33 1002.2
20260505030035 19 24 11.3 14.5 0.00 0.00 0.00 33 1002.3
20260505025932 19 36 9.7 12.9 0.00 0.00 0.00 34 1002.3
20260505025835 19 37 8.0 11.3 0.00 0.00 0.00 34 1002.3
20260505025731 20 24 8.0 11.3 0.00 0.00 0.00 33 1002.3
20260505025628 20 23 6.4 8.0 0.00 0.00 0.00 33 1002.4
20260505025521 20 342 6.4 8.0 0.00 0.00 0.00 33 1002.3
20260505025421 20 334 4.8 8.0 0.00 0.00 0.00 33 1002.3
20260505025320 20 325 1.6 6.4 0.00 0.00 0.00 32 1002.3
20260505025216 20 189 0.0 0.0 0.00 0.00 0.00 29 1002.1
20260505025134 20 189 0.0 0.0 0.00 0.00 0.00 30 1002.1
20260505025048 20 189 0.0 0.0 0.00 0.00 0.00 30 1002.1
20260505024925 20 189 0.0 0.0 0.00 0.00 0.00 30 1002.1
20260505024849 20 189 0.0 0.0 0.00 0.00 0.00 30 1002.0
20260505024727 20 189 0.0 0.0 0.00 0.00 0.00 30 1002.0
20260505024623 20 189 0.0 0.0 0.00 0.00 0.00 30 1002.0
20260505024520 20 190 0.0 0.0 0.00 0.00 0.00 31 1002.0
20260505024417 20 190 0.0 1.6 0.00 0.00 0.00 31 1002.0
20260505024336 20 190 0.0 3.2 0.00 0.00 0.00 31 1002.0
20260505024254 20 190 0.0 4.8 0.00 0.00 0.00 31 1002.0
20260505024131 20 190 0.0 4.8 0.00 0.00 0.00 31 1002.0
20260505024048 20 190 0.0 4.8 0.00 0.00 0.00 31 1002.0
20260505023928 20 190 0.0 4.8 0.00 0.00 0.00 31 1002.0
20260505023828 20 190 0.0 4.8 0.00 0.00 0.00 32 1002.0
20260505023744 20 190 0.0 4.8 0.00 0.00 0.00 33 1002.0
20260505023640 19 190 0.0 4.8 0.00 0.00 0.00 33 1002.0
20260505023535 19 190 1.6 4.8 0.00 0.00 0.00 32 1002.0
20260505023432 20 190 3.2 4.8 0.00 0.00 0.00 33 1002.0
20260505023351 20 190 3.2 4.8 0.00 0.00 0.00 33 1002.0
20260505023227 20 342 3.2 4.8 0.00 0.00 0.00 33 1002.0
20260505023125 20 342 3.2 4.8 0.00 0.00 0.00 33 1002.0
20260505023023 20 342 3.2 4.8 0.00 0.00 0.00 33 1001.9
20260505022924 20 341 3.2 4.8 0.00 0.00 0.00 33 1002.0
20260505022822 20 342 3.2 4.8 0.00 0.00 0.00 33 1001.9
20260505022719 20 342 1.6 3.2 0.00 0.00 0.00 33 1002.0
20260505022620 20 360 0.0 4.8 0.00 0.00 0.00 33 1002.0
20260505022534 20 360 0.0 4.8 0.00 0.00 0.00 33 1001.9
20260505022433 20 341 0.0 4.8 0.00 0.00 0.00 33 1001.9
20260505022336 20 360 0.0 4.8 0.00 0.00 0.00 33 1001.9
20260505022236 20 342 0.0 4.8 0.00 0.00 0.00 33 1001.9
20260505022133 20 360 0.0 6.4 0.00 0.00 0.00 33 1001.8
20260505022026 20 341 0.0 6.4 0.00 0.00 0.00 33 1001.8
20260505021945 20 360 0.0 6.4 0.00 0.00 0.00 33 1001.8
20260505021844 20 342 1.6 6.4 0.00 0.00 0.00 33 1001.8
20260505021800 20 342 3.2 6.4 0.00 0.00 0.00 33 1001.8
20260505021700 20 342 3.2 8.0 0.00 0.00 0.00 33 1001.7
20260505021553 20 342 3.2 9.7 0.00 0.00 0.00 33 1001.7
20260505021414 20 342 3.2 11.3 0.00 0.00 0.00 33 1001.7
20260505021318 20 342 4.8 11.3 0.00 0.00 0.00 33 1001.6
20260505021216 20 342 4.8 11.3 0.00 0.00 0.00 33 1001.6
20260505021116 20 342 4.8 11.3 0.00 0.00 0.00 32 1001.6
20260505021030 20 342 4.8 11.3 0.00 0.00 0.00 32 1001.6
20260505020927 20 342 6.4 11.3 0.00 0.00 0.00 32 1001.7
20260505020826 20 342 6.4 11.3 0.00 0.00 0.00 32 1001.7
20260505020745 20 342 8.0 11.3 0.00 0.00 0.00 31 1001.7
20260505020625 20 341 8.0 11.3 0.00 0.00 0.00 31 1001.7
20260505020519 20 342 9.7 11.3 0.00 0.00 0.00 30 1001.7
20260505020416 20 339 8.0 11.3 0.00 0.00 0.00 29 1001.7
20260505020335 21 339 8.0 9.7 0.00 0.00 0.00 29 1001.7
20260505020234 21 344 8.0 9.7 0.00 0.00 0.00 28 1001.7
20260505020132 21 355 8.0 9.7 0.00 0.00 0.00 28 1001.7
20260505020026 21 355 8.0 11.3 0.00 0.00 0.00 28 1001.6
20260505015926 21 332 8.0 11.3 0.00 0.00 0.00 28 1001.6
20260505015829 21 328 8.0 11.3 0.00 0.00 0.00 27 1001.5
20260505015728 21 321 8.0 11.3 0.00 0.00 0.00 27 1001.6
20260505015625 21 315 8.0 11.3 0.00 0.00 0.00 27 1001.7
20260505015521 21 311 8.0 11.3 0.00 0.00 0.00 27 1001.7
20260505015422 21 309 8.0 11.3 0.00 0.00 0.00 27 1001.7
20260505015324 21 309 9.7 11.3 0.00 0.00 0.00 27 1001.7
20260505015221 21 306 9.7 11.3 0.00 0.00 0.00 26 1001.7
20260505015143 21 309 9.7 11.3 0.00 0.00 0.00 26 1001.7
20260505015019 21 306 9.7 11.3 0.00 0.00 0.00 26 1001.7
20260505014937 22 300 9.7 11.3 0.00 0.00 0.00 26 1001.7
20260505014819 22 296 9.7 11.3 0.00 0.00 0.00 26 1001.8
20260505014738 22 296 9.7 11.3 0.00 0.00 0.00 26 1001.7
20260505014656 22 292 8.0 9.7 0.00 0.00 0.00 26 1001.7
20260505014529 22 292 8.0 9.7 0.00 0.00 0.00 25 1001.7
20260505014430 22 290 8.0 9.7 0.00 0.00 0.00 25 1001.7
20260505014332 22 290 6.4 8.0 0.00 0.00 0.00 25 1001.7
20260505014229 22 290 6.4 8.0 0.00 0.00 0.00 25 1001.7
20260505014128 22 289 6.4 6.4 0.00 0.00 0.00 25 1001.7
20260505014042 22 292 6.4 6.4 0.00 0.00 0.00 25 1001.8
20260505013939 22 287 4.8 6.4 0.00 0.00 0.00 25 1001.7
20260505013816 22 281 4.8 6.4 0.00 0.00 0.00 25 1001.8
20260505013736 22 275 3.2 6.4 0.00 0.00 0.00 25 1001.8
20260505013654 22 269 3.2 4.8 0.00 0.00 0.00 25 1001.7
20260505013527 22 269 3.2 4.8 0.00 0.00 0.00 25 1001.8
20260505013444 22 269 1.6 6.4 0.00 0.00 0.00 25 1001.8
20260505013331 22 269 3.2 6.4 0.00 0.00 0.00 25 1001.8
20260505013231 22 269 3.2 6.4 0.00 0.00 0.00 25 1001.8
20260505013131 22 269 3.2 6.4 0.00 0.00 0.00 24 1001.8
20260505013025 22 269 3.2 6.4 0.00 0.00 0.00 24 1001.8
20260505012946 22 269 1.6 6.4 0.00 0.00 0.00 24 1001.8
20260505012843 23 269 0.0 6.4 0.00 0.00 0.00 24 1001.8
20260505012723 23 269 1.6 6.4 0.00 0.00 0.00 24 1001.8
20260505012624 23 269 3.2 6.4 0.00 0.00 0.00 24 1001.8
20260505012520 23 269 4.8 6.4 0.00 0.00 0.00 24 1001.8
20260505012436 23 269 4.8 6.4 0.00 0.00 0.00 24 1001.8
20260505012317 23 269 4.8 6.4 0.00 0.00 0.00 24 1001.8
20260505012235 23 269 4.8 6.4 0.00 0.00 0.00 24 1001.8
20260505012152 23 269 6.4 6.4 0.00 0.00 0.00 24 1001.9
20260505012026 23 269 6.4 6.4 0.00 0.00 0.00 23 1001.8
20260505011927 23 269 6.4 6.4 0.00 0.00 0.00 23 1001.8
20260505011846 23 269 6.4 9.7 0.00 0.00 0.00 23 1001.8
20260505011725 23 269 6.4 9.7 0.00 0.00 0.00 23 1001.8
20260505011623 23 269 6.4 11.3 0.00 0.00 0.00 23 1001.8
20260505011517 23 269 6.4 11.3 0.00 0.00 0.00 23 1001.7
20260505011434 23 269 6.4 11.3 0.00 0.00 0.00 22 1001.7
20260505011334 24 269 6.4 11.3 0.00 0.00 0.00 22 1001.7
20260505011232 24 269 4.8 11.3 0.00 0.00 0.00 22 1001.7
20260505011155 24 269 4.8 11.3 0.00 0.00 0.00 22 1001.7
20260505011027 24 272 6.4 11.3 0.00 0.00 0.00 22 1001.7
20260505010932 24 271 8.0 11.3 0.00 0.00 0.00 21 1001.7
20260505010834 24 271 9.7 11.3 0.00 0.00 0.00 21 1001.8
20260505010730 25 269 9.7 11.3 0.00 0.00 0.00 21 1001.8
20260505010628 25 267 9.7 11.3 0.00 0.00 0.00 21 1001.7
20260505010525 25 275 9.7 11.3 0.00 0.00 0.00 21 1001.7
20260505010423 25 275 9.7 11.3 0.00 0.00 0.00 20 1001.8
20260505010322 25 279 9.7 11.3 0.00 0.00 0.00 20 1001.7
20260505010223 25 264 9.7 11.3 0.00 0.00 0.00 20 1001.8
20260505010140 25 266 9.7 12.9 0.00 0.00 0.00 20 1001.8
20260505010033 25 273 9.7 12.9 0.00 0.00 0.00 20 1001.7
20260505005931 25 275 8.0 12.9 0.00 0.00 0.00 20 1001.7
20260505005830 25 270 8.0 12.9 0.00 0.00 0.00 20 1001.7
20260505005730 25 277 8.0 12.9 0.00 0.00 0.00 20 1001.7
20260505005628 25 277 9.7 12.9 0.00 0.00 0.00 20 1001.7
20260505005527 25 270 9.7 12.9 0.00 0.00 0.00 19 1001.7
20260505005425 25 262 9.7 12.9 0.00 0.00 0.00 19 1001.7
20260505005323 25 266 9.7 12.9 0.00 0.00 0.00 19 1001.6
20260505005220 26 265 9.7 12.9 0.00 0.00 0.00 19 1001.7
20260505005141 26 264 9.7 11.3 0.00 0.00 0.00 19 1001.7
20260505005016 26 271 8.0 11.3 0.00 0.00 0.00 19 1001.8
20260505004913 26 262 8.0 11.3 0.00 0.00 0.00 19 1001.7
20260505004820 26 271 8.0 12.9 0.00 0.00 0.00 19 1001.7
20260505004717 26 265 8.0 12.9 0.00 0.00 0.00 19 1001.7
20260505004617 26 266 8.0 12.9 0.00 0.00 0.00 19 1001.7
20260505004531 26 267 8.0 12.9 0.00 0.00 0.00 19 1001.7
20260505004428 26 265 8.0 14.5 0.00 0.00 0.00 19 1001.7
20260505004326 26 264 9.7 16.1 0.00 0.00 0.00 19 1001.7
20260505004224 26 261 9.7 16.1 0.00 0.00 0.00 19 1001.7
20260505004121 26 262 9.7 16.1 0.00 0.00 0.00 19 1001.8
20260505004020 26 267 11.3 16.1 0.00 0.00 0.00 18 1001.8
20260505003921 26 263 11.3 16.1 0.00 0.00 0.00 18 1001.8
20260505003820 26 271 11.3 16.1 0.00 0.00 0.00 18 1001.8
20260505003715 26 267 11.3 16.1 0.00 0.00 0.00 18 1001.8
20260505003635 26 267 11.3 16.1 0.00 0.00 0.00 18 1001.8
20260505003529 26 261 12.9 16.1 0.00 0.00 0.00 18 1001.9
20260505003425 26 274 12.9 17.7 0.00 0.00 0.00 18 1001.8
20260505003324 26 251 11.3 17.7 0.00 0.00 0.00 18 1001.9
20260505003219 26 269 9.7 17.7 0.00 0.00 0.00 18 1001.9
20260505003141 26 270 9.7 17.7 0.00 0.00 0.00 19 1001.9
20260505003035 26 272 9.7 17.7 0.00 0.00 0.00 19 1001.9
20260505002931 26 262 11.3 17.7 0.00 0.00 0.00 18 1002.0
20260505002816 27 279 9.7 17.7 0.00 0.00 0.00 18 1002.0
20260505002735 27 273 9.7 17.7 0.00 0.00 0.00 18 1002.0
20260505002635 27 278 12.9 17.7 0.00 0.00 0.00 18 1002.0
20260505002531 27 278 12.9 17.7 0.00 0.00 0.00 18 1002.0
20260505002415 27 278 11.3 16.1 0.00 0.00 0.00 18 1002.0
20260505002337 27 279 11.3 16.1 0.00 0.00 0.00 18 1002.0
20260505002256 27 277 11.3 17.7 0.00 0.00 0.00 18 1002.0
20260505002132 27 279 11.3 20.9 0.00 0.00 0.00 18 1002.0
20260505002025 27 268 11.3 20.9 0.00 0.00 0.00 18 1002.0
20260505001941 27 269 12.9 22.5 0.00 0.00 0.00 18 1002.0
20260505001821 27 275 12.9 22.5 0.00 0.00 0.00 17 1002.0
20260505001718 27 281 12.9 22.5 0.00 0.00 0.00 17 1001.9
20260505001618 27 271 12.9 22.5 0.00 0.00 0.00 17 1002.0
20260505001518 27 279 12.9 22.5 0.00 0.00 0.00 17 1002.0
20260505001416 27 283 14.5 24.1 0.00 0.00 0.00 17 1002.0
20260505001335 27 271 16.1 24.1 0.00 0.00 0.00 17 1002.0
20260505001232 27 267 17.7 24.1 0.00 0.00 0.00 16 1002.0
20260505001132 27 265 19.3 24.1 0.00 0.00 0.00 16 1002.0
20260505001027 27 263 17.7 24.1 0.00 0.00 0.00 17 1002.0
20260505000947 27 261 17.7 24.1 0.00 0.00 0.00 17 1002.0
20260505000829 27 268 16.1 24.1 0.00 0.00 0.00 17 1002.0
20260505000726 27 265 17.7 24.1 0.00 0.00 0.00 17 1002.0
20260505000623 27 256 17.7 24.1 0.00 0.00 0.00 17 1002.0
20260505000537 27 265 19.3 24.1 0.00 0.00 0.00 17 1002.0
20260505000434 27 295 19.3 24.1 0.00 0.00 0.00 17 1001.9
20260505000336 27 305 17.7 24.1 0.00 0.00 0.00 17 1001.8
20260505000213 27 300 17.7 20.9 0.00 0.00 0.00 17 1001.9
20260505000117 27 284 16.1 20.9 0.00 0.00 0.00 17 1001.9
20260505000031 27 286 16.1 20.9 0.00 0.00 0.00 17 1002.0
20260504235928 27 290 14.5 22.5 0.00 0.00 0.00 17 1002.0
20260504235827 27 308 12.9 22.5 0.00 0.00 0.00 17 1002.0
20260504235723 27 296 11.3 22.5 0.00 0.00 0.00 17 1002.0
20260504235620 27 294 11.3 22.5 0.00 0.00 0.00 17 1002.0
20260504235534 27 296 11.3 22.5 0.00 0.00 0.00 17 1002.0
20260504235434 27 301 12.9 22.5 0.00 0.00 0.00 17 1002.0
20260504235333 27 301 12.9 22.5 0.00 0.00 0.00 17 1002.0
20260504235254 27 274 12.9 22.5 0.00 0.00 0.00 17 1002.0
20260504235150 27 290 12.9 22.5 0.00 0.00 0.00 17 1002.0
20260504235023 27 293 14.5 22.5 0.00 0.00 0.00 17 1002.1
20260504234920 27 290 16.1 22.5 0.00 0.00 0.00 17 1002.0
20260504234821 27 303 16.1 22.5 0.00 0.00 0.00 17 1002.1
20260504234721 27 299 17.7 22.5 0.00 0.00 0.00 17 1002.1
20260504234618 27 292 17.7 22.5 0.00 0.00 0.00 17 1002.1
20260504234533 27 296 16.1 22.5 0.00 0.00 0.00 17 1002.1
20260504234449 27 288 16.1 22.5 0.00 0.00 0.00 17 1002.2
20260504234330 27 298 16.1 25.7 0.00 0.00 0.00 17 1002.1
20260504234226 27 296 16.1 25.7 0.00 0.00 0.00 16 1002.2
20260504234126 27 288 16.1 25.7 0.00 0.00 0.00 17 1002.2
20260504234020 27 294 14.5 25.7 0.00 0.00 0.00 17 1002.2
20260504233917 27 309 16.1 25.7 0.00 0.00 0.00 17 1002.2
20260504233819 27 310 16.1 25.7 0.00 0.00 0.00 17 1002.2
20260504233716 27 299 16.1 25.7 0.00 0.00 0.00 17 1002.2
20260504233638 27 294 14.5 25.7 0.00 0.00 0.00 17 1002.2
20260504233531 27 310 17.7 25.7 0.00 0.00 0.00 17 1002.2
20260504233431 27 319 19.3 25.7 0.00 0.00 0.00 17 1002.2
20260504233330 27 317 17.7 25.7 0.00 0.00 0.00 17 1002.2
20260504233226 27 288 17.7 24.1 0.00 0.00 0.00 17 1002.2
20260504233127 27 275 19.3 24.1 0.00 0.00 0.00 17 1002.2
20260504233044 27 281 19.3 24.1 0.00 0.00 0.00 17 1002.2
20260504232921 27 270 17.7 24.1 0.00 0.00 0.00 17 1002.2
20260504232823 27 268 17.7 24.1 0.00 0.00 0.00 18 1002.2
20260504232726 27 271 16.1 22.5 0.00 0.00 0.00 18 1002.2
20260504232624 27 280 14.5 22.5 0.00 0.00 0.00 17 1002.2
20260504232521 27 288 12.9 19.3 0.00 0.00 0.00 17 1002.2
20260504232419 27 261 11.3 19.3 0.00 0.00 0.00 17 1002.2
20260504232318 27 302 14.5 19.3 0.00 0.00 0.00 17 1002.2
20260504232234 27 300 16.1 19.3 0.00 0.00 0.00 17 1002.2
20260504232118 27 288 12.9 19.3 0.00 0.00 0.00 18 1002.2
20260504232032 27 269 11.3 19.3 0.00 0.00 0.00 17 1002.2
20260504231949 27 283 11.3 19.3 0.00 0.00 0.00 17 1002.1
20260504231830 27 281 11.3 20.9 0.00 0.00 0.00 17 1002.2
20260504231727 27 274 11.3 20.9 0.00 0.00 0.00 17 1002.2
20260504231644 27 253 14.5 20.9 0.00 0.00 0.00 17 1002.1
20260504231520 27 279 14.5 20.9 0.00 0.00 0.00 17 1002.1
20260504231416 27 287 11.3 20.9 0.00 0.00 0.00 17 1002.1
20260504231336 27 290 9.7 20.9 0.00 0.00 0.00 17 1002.1
20260504231217 27 292 12.9 20.9 0.00 0.00 0.00 16 1002.1
20260504231134 27 279 16.1 20.9 0.00 0.00 0.00 17 1002.1
20260504231027 27 275 16.1 20.9 0.00 0.00 0.00 16 1002.1
20260504230944 27 296 16.1 22.5 0.00 0.00 0.00 17 1002.1
20260504230821 27 280 14.5 22.5 0.00 0.00 0.00 17 1002.2
20260504230723 27 287 12.9 24.1 0.00 0.00 0.00 17 1002.2
20260504230621 27 306 14.5 24.1 0.00 0.00 0.00 17 1002.1
20260504230518 27 311 14.5 24.1 0.00 0.00 0.00 17 1002.1
20260504230439 27 301 14.5 24.1 0.00 0.00 0.00 17 1002.1
20260504230321 27 282 14.5 24.1 0.00 0.00 0.00 17 1002.2
20260504230237 27 279 16.1 24.1 0.00 0.00 0.00 17 1002.3
20260504230138 27 282 17.7 24.1 0.00 0.00 0.00 17 1002.2
20260504230038 27 279 19.3 24.1 0.00 0.00 0.00 17 1002.2
20260504225935 27 278 20.9 24.1 0.00 0.00 0.00 17 1002.2
20260504225834 27 298 17.7 24.1 0.00 0.00 0.00 17 1002.3
20260504225732 28 272 14.5 24.1 0.00 0.00 0.00 17 1002.2
20260504225629 28 281 16.1 25.7 0.00 0.00 0.00 17 1002.2
20260504225522 28 290 17.7 25.7 0.00 0.00 0.00 17 1002.2
20260504225423 28 284 17.7 25.7 0.00 0.00 0.00 17 1002.1
20260504225321 28 271 16.1 25.7 0.00 0.00 0.00 17 1002.2
20260504225219 28 277 16.1 25.7 0.00 0.00 0.00 16 1002.3
20260504225136 28 277 14.5 25.7 0.00 0.00 0.00 16 1002.2
20260504225031 28 290 14.5 25.7 0.00 0.00 0.00 16 1002.3
20260504224948 28 283 17.7 25.7 0.00 0.00 0.00 16 1002.3
20260504224824 28 273 17.7 25.7 0.00 0.00 0.00 16 1002.2
20260504224721 28 286 17.7 25.7 0.00 0.00 0.00 16 1002.2
20260504224619 28 287 16.1 24.1 0.00 0.00 0.00 17 1002.2
20260504224517 28 291 16.1 24.1 0.00 0.00 0.00 17 1002.2
20260504224438 28 277 16.1 24.1 0.00 0.00 0.00 16 1002.2
20260504224335 28 254 16.1 24.1 0.00 0.00 0.00 16 1002.3
20260504224233 28 281 17.7 25.7 0.00 0.00 0.00 17 1002.3
20260504224154 28 311 20.9 25.7 0.00 0.00 0.00 16 1002.3
20260504224030 28 282 20.9 25.7 0.00 0.00 0.00 17 1002.3
20260504223950 28 290 19.3 25.7 0.00 0.00 0.00 16 1002.3
20260504223829 28 288 16.1 27.4 0.00 0.00 0.00 17 1002.3
20260504223724 28 255 12.9 27.4 0.00 0.00 0.00 17 1002.3
20260504223629 28 255 14.5 29.0 0.00 0.00 0.00 17 1002.2
20260504223526 28 279 16.1 29.0 0.00 0.00 0.00 16 1002.3
20260504223424 28 253 17.7 29.0 0.00 0.00 0.00 16 1002.3
20260504223322 28 256 19.3 29.0 0.00 0.00 0.00 16 1002.3
20260504223239 28 258 19.3 29.0 0.00 0.00 0.00 16 1002.3
20260504223139 28 254 19.3 29.0 0.00 0.00 0.00 16 1002.3
20260504223012 28 256 19.3 29.0 0.00 0.00 0.00 16 1002.3
20260504222932 28 262 20.9 29.0 0.00 0.00 0.00 16 1002.3
20260504222830 28 252 20.9 29.0 0.00 0.00 0.00 16 1002.4
20260504222731 28 261 22.5 29.0 0.00 0.00 0.00 16 1002.4
20260504222627 28 256 20.9 29.0 0.00 0.00 0.00 16 1002.4
20260504222524 28 268 20.9 29.0 0.00 0.00 0.00 16 1002.4
20260504222421 28 252 20.9 29.0 0.00 0.00 0.00 16 1002.4
20260504222342 28 252 20.9 27.4 0.00 0.00 0.00 17 1002.4
20260504222220 28 265 19.3 24.1 0.00 0.00 0.00 17 1002.4
20260504222118 28 257 14.5 24.1 0.00 0.00 0.00 17 1002.4
20260504222019 28 283 12.9 22.5 0.00 0.00 0.00 16 1002.4
20260504221920 28 295 14.5 22.5 0.00 0.00 0.00 16 1002.4
20260504221820 28 273 14.5 22.5 0.00 0.00 0.00 16 1002.4
20260504221717 28 291 14.5 22.5 0.00 0.00 0.00 17 1002.4
20260504221638 28 298 12.9 22.5 0.00 0.00 0.00 17 1002.4
20260504221532 28 281 9.7 22.5 0.00 0.00 0.00 17 1002.4
20260504221430 28 291 8.0 25.7 0.00 0.00 0.00 17 1002.4
20260504221328 28 255 11.3 25.7 0.00 0.00 0.00 17 1002.4
20260504221233 28 265 14.5 25.7 0.00 0.00 0.00 16 1002.4
20260504221135 28 306 16.1 25.7 0.00 0.00 0.00 16 1002.4
20260504221028 28 298 12.9 25.7 0.00 0.00 0.00 17 1002.4
20260504220926 28 290 11.3 25.7 0.00 0.00 0.00 17 1002.4
20260504220825 28 308 11.3 25.7 0.00 0.00 0.00 17 1002.5
20260504220720 28 292 16.1 27.4 0.00 0.00 0.00 17 1002.5
20260504220617 28 312 19.3 30.6 0.00 0.00 0.00 17 1002.5
20260504220531 28 303 19.3 30.6 0.00 0.00 0.00 17 1002.5
20260504220435 28 294 19.3 30.6 0.00 0.00 0.00 17 1002.5
20260504220335 28 288 17.7 35.4 0.00 0.00 0.00 17 1002.6
20260504220233 28 287 16.1 35.4 0.00 0.00 0.00 17 1002.6
20260504220133 28 269 16.1 35.4 0.00 0.00 0.00 17 1002.6
20260504220028 28 282 16.1 35.4 0.00 0.00 0.00 17 1002.6
20260504215945 28 276 19.3 35.4 0.00 0.00 0.00 16 1002.6
20260504215823 28 277 22.5 35.4 0.00 0.00 0.00 17 1002.6
20260504215718 28 282 24.1 35.4 0.00 0.00 0.00 17 1002.6
20260504215620 28 278 25.7 35.4 0.00 0.00 0.00 17 1002.6
20260504215537 28 287 25.7 35.4 0.00 0.00 0.00 17 1002.6
20260504215434 28 277 22.5 35.4 0.00 0.00 0.00 17 1002.4
20260504215333 28 238 19.3 30.6 0.00 0.00 0.00 16 1002.6
20260504215255 28 256 19.3 27.4 0.00 0.00 0.00 16 1002.6
20260504215156 28 246 20.9 27.4 0.00 0.00 0.00 16 1002.7
20260504215029 28 259 19.3 27.4 0.00 0.00 0.00 17 1002.7
20260504214930 28 274 19.3 27.4 0.00 0.00 0.00 17 1002.7
20260504214829 28 263 19.3 27.4 0.00 0.00 0.00 17 1002.7
20260504214731 28 281 19.3 27.4 0.00 0.00 0.00 17 1002.7
20260504214628 28 290 17.7 29.0 0.00 0.00 0.00 17 1002.8
20260504214522 28 264 17.7 35.4 0.00 0.00 0.00 17 1002.8
20260504214420 28 257 16.1 35.4 0.00 0.00 0.00 17 1002.8
20260504214341 28 257 14.5 35.4 0.00 0.00 0.00 16 1002.8
20260504214216 28 250 17.7 35.4 0.00 0.00 0.00 17 1002.8
20260504214135 28 248 17.7 35.4 0.00 0.00 0.00 17 1002.8
20260504214049 28 276 17.7 35.4 0.00 0.00 0.00 17 1002.8
20260504213925 28 267 20.9 35.4 0.00 0.00 0.00 17 1002.9
20260504213828 28 251 22.5 35.4 0.00 0.00 0.00 16 1003.0
20260504213724 28 264 25.7 35.4 0.00 0.00 0.00 16 1003.1
20260504213641 28 234 29.0 37.0 0.00 0.00 0.00 16 1003.0
20260504213534 28 220 29.0 37.0 0.00 0.00 0.00 16 1002.9
20260504213455 28 244 25.7 33.8 0.00 0.00 0.00 16 1003.0
20260504213334 28 245 24.1 30.6 0.00 0.00 0.00 16 1002.9
20260504213233 28 263 19.3 30.6 0.00 0.00 0.00 17 1002.9
20260504213154 28 246 14.5 30.6 0.00 0.00 0.00 17 1003.0
20260504213028 28 247 12.9 37.0 0.00 0.00 0.00 17 1003.0
20260504212949 28 244 14.5 37.0 0.00 0.00 0.00 17 1003.1
20260504212834 28 255 16.1 37.0 0.00 0.00 0.00 17 1003.1
20260504212754 28 271 17.7 37.0 0.00 0.00 0.00 17 1003.1
20260504212630 28 270 14.5 37.0 0.00 0.00 0.00 17 1003.1
20260504212523 28 276 12.9 37.0 0.00 0.00 0.00 16 1003.1
20260504212424 28 261 14.5 40.2 0.00 0.00 0.00 16 1003.3
20260504212324 28 247 20.9 40.2 0.00 0.00 0.00 17 1003.3
20260504212223 28 256 25.7 40.2 0.00 0.00 0.00 16 1003.3
20260504212140 28 247 25.7 40.2 0.00 0.00 0.00 16 1003.2
20260504212017 28 245 20.9 40.2 0.00 0.00 0.00 17 1003.2
20260504211915 28 279 17.7 40.2 0.00 0.00 0.00 17 1003.2
20260504211833 28 270 17.7 40.2 0.00 0.00 0.00 17 1003.3
20260504211730 28 269 20.9 40.2 0.00 0.00 0.00 16 1003.3
20260504211627 28 258 27.4 40.2 0.00 0.00 0.00 16 1003.3
20260504211525 28 265 32.2 40.2 0.00 0.00 0.00 16 1003.3
20260504211423 28 274 32.2 40.2 0.00 0.00 0.00 17 1003.3
20260504211327 28 267 25.7 37.0 0.00 0.00 0.00 16 1003.3
20260504211224 28 250 19.3 35.4 0.00 0.00 0.00 17 1003.3
20260504211122 28 256 19.3 33.8 0.00 0.00 0.00 17 1003.4
20260504211035 28 259 19.3 33.8 0.00 0.00 0.00 17 1003.4
20260504210934 28 267 19.3 33.8 0.00 0.00 0.00 17 1003.4
20260504210832 28 267 20.9 33.8 0.00 0.00 0.00 17 1003.5
20260504210727 28 273 25.7 33.8 0.00 0.00 0.00 16 1003.5
20260504210645 28 254 29.0 33.8 0.00 0.00 0.00 17 1003.5
20260504210537 28 264 25.7 33.8 0.00 0.00 0.00 17 1003.4
20260504210416 28 263 22.5 32.2 0.00 0.00 0.00 17 1003.5
20260504210319 28 248 20.9 32.2 0.00 0.00 0.00 16 1003.5
20260504210239 28 253 20.9 35.4 0.00 0.00 0.00 16 1003.5
20260504210116 28 247 24.1 35.4 0.00 0.00 0.00 16 1003.6
20260504210029 28 246 25.7 35.4 0.00 0.00 0.00 17 1003.6
20260504205926 28 259 25.7 35.4 0.00 0.00 0.00 17 1003.6
20260504205845 28 264 24.1 35.4 0.00 0.00 0.00 17 1003.6
20260504205801 28 268 22.5 35.4 0.00 0.00 0.00 17 1003.7
20260504205657 28 269 22.5 35.4 0.00 0.00 0.00 17 1003.7
20260504205550 28 271 25.7 35.4 0.00 0.00 0.00 17 1003.7
20260504205432 28 269 27.4 35.4 0.00 0.00 0.00 17 1003.6
20260504205334 28 267 25.7 35.4 0.00 0.00 0.00 17 1003.6
20260504205234 28 269 20.9 33.8 0.00 0.00 0.00 17 1003.6
20260504205133 28 250 17.7 35.4 0.00 0.00 0.00 17 1003.6
20260504205047 28 285 16.1 35.4 0.00 0.00 0.00 18 1003.7
20260504204943 28 271 16.1 35.4 0.00 0.00 0.00 17 1003.7
20260504204824 27 261 19.3 35.4 0.00 0.00 0.00 17 1003.8
20260504204719 28 284 22.5 35.4 0.00 0.00 0.00 17 1003.9
20260504204635 28 271 22.5 35.4 0.00 0.00 0.00 17 1003.9
20260504204550 28 271 25.7 37.0 0.00 0.00 0.00 17 1003.8
20260504204417 28 271 29.0 37.0 0.00 0.00 0.00 17 1003.8
20260504204318 28 273 25.7 37.0 0.00 0.00 0.00 17 1003.8
20260504204234 28 267 25.7 37.0 0.00 0.00 0.00 17 1003.8
20260504204131 28 232 24.1 40.2 0.00 0.00 0.00 17 1003.8
20260504204024 28 261 22.5 40.2 0.00 0.00 0.00 17 1003.9
20260504203920 27 270 20.9 40.2 0.00 0.00 0.00 17 1003.9
20260504203822 28 264 22.5 40.2 0.00 0.00 0.00 17 1003.9
20260504203717 28 267 25.7 40.2 0.00 0.00 0.00 17 1003.9
20260504203614 28 255 25.7 40.2 0.00 0.00 0.00 17 1003.9
20260504203532 28 265 22.5 40.2 0.00 0.00 0.00 17 1003.8
20260504203428 28 261 24.1 40.2 0.00 0.00 0.00 17 1003.9
20260504203334 28 241 27.4 40.2 0.00 0.00 0.00 17 1003.9
20260504203250 28 265 27.4 40.2 0.00 0.00 0.00 17 1004.0
20260504203127 28 270 27.4 40.2 0.00 0.00 0.00 17 1003.9
20260504203019 28 265 27.4 37.0 0.00 0.00 0.00 17 1004.0
20260504202939 28 264 29.0 37.0 0.00 0.00 0.00 17 1003.9
20260504202820 28 269 27.4 35.4 0.00 0.00 0.00 17 1004.0
20260504202716 28 250 27.4 37.0 0.00 0.00 0.00 17 1004.0
20260504202615 28 232 27.4 40.2 0.00 0.00 0.00 17 1003.9
20260504202516 28 237 27.4 41.8 0.00 0.00 0.00 17 1004.0
20260504202417 28 248 29.0 41.8 0.00 0.00 0.00 17 1004.0
20260504202336 28 244 29.0 41.8 0.00 0.00 0.00 17 1003.9
20260504202231 28 242 25.7 41.8 0.00 0.00 0.00 17 1004.0
20260504202149 28 233 22.5 41.8 0.00 0.00 0.00 17 1004.0
20260504202046 28 238 22.5 41.8 0.00 0.00 0.00 17 1004.0
20260504201942 28 246 25.7 41.8 0.00 0.00 0.00 17 1004.1
20260504201840 28 239 32.2 41.8 0.00 0.00 0.00 17 1004.0
20260504201756 28 252 30.6 41.8 0.00 0.00 0.00 17 1004.0
20260504201632 28 250 27.4 41.8 0.00 0.00 0.00 17 1004.0
20260504201531 28 252 25.7 37.0 0.00 0.00 0.00 17 1004.1
20260504201428 28 252 25.7 37.0 0.00 0.00 0.00 17 1004.1
20260504201347 28 278 27.4 37.0 0.00 0.00 0.00 17 1004.1
20260504201222 28 272 27.4 38.6 0.00 0.00 0.00 17 1004.1
20260504201119 28 266 27.4 38.6 0.00 0.00 0.00 17 1004.1
20260504201036 28 260 27.4 38.6 0.00 0.00 0.00 17 1004.0
20260504200933 28 263 27.4 38.6 0.00 0.00 0.00 17 1004.0
20260504200832 28 264 25.7 38.6 0.00 0.00 0.00 17 1004.1
20260504200731 28 263 25.7 38.6 0.00 0.00 0.00 17 1004.2
20260504200635 28 240 25.7 38.6 0.00 0.00 0.00 17 1004.2
20260504200529 28 249 27.4 38.6 0.00 0.00 0.00 17 1004.2
20260504200427 28 261 30.6 38.6 0.00 0.00 0.00 17 1004.2
20260504200326 28 257 30.6 38.6 0.00 0.00 0.00 17 1004.2
20260504200223 28 257 27.4 38.6 0.00 0.00 0.00 18 1004.1
20260504200139 28 273 24.1 35.4 0.00 0.00 0.00 18 1004.2
20260504200053 28 248 22.5 35.4 0.00 0.00 0.00 18 1004.2
20260504195930 28 242 24.1 35.4 0.00 0.00 0.00 18 1004.3
20260504195853 28 234 25.7 35.4 0.00 0.00 0.00 18 1004.3
20260504195752 28 251 27.4 35.4 0.00 0.00 0.00 18 1004.3
20260504195628 28 251 22.5 35.4 0.00 0.00 0.00 18 1004.3
20260504195525 27 252 19.3 33.8 0.00 0.00 0.00 18 1004.3
20260504195444 27 262 20.9 33.8 0.00 0.00 0.00 19 1004.3
20260504195323 27 260 19.3 33.8 0.00 0.00 0.00 19 1004.3
20260504195219 27 241 22.5 33.8 0.00 0.00 0.00 19 1004.3
20260504195119 27 263 22.5 33.8 0.00 0.00 0.00 18 1004.3
20260504195017 27 265 19.3 29.0 0.00 0.00 0.00 18 1004.3
20260504194935 27 254 19.3 29.0 0.00 0.00 0.00 18 1004.3
20260504194835 27 254 17.7 29.0 0.00 0.00 0.00 18 1004.3
20260504194730 27 269 14.5 29.0 0.00 0.00 0.00 18 1004.3
20260504194628 27 267 14.5 29.0 0.00 0.00 0.00 18 1004.3
20260504194522 27 287 14.5 29.0 0.00 0.00 0.00 18 1004.3
20260504194418 27 269 17.7 35.4 0.00 0.00 0.00 18 1004.4
20260504194337 27 263 19.3 35.4 0.00 0.00 0.00 18 1004.4
20260504194232 27 277 20.9 35.4 0.00 0.00 0.00 18 1004.5
20260504194134 27 293 19.3 35.4 0.00 0.00 0.00 18 1004.5
20260504194031 27 300 19.3 35.4 0.00 0.00 0.00 18 1004.5
20260504193927 27 281 16.1 35.4 0.00 0.00 0.00 18 1004.6
20260504193829 27 281 16.1 35.4 0.00 0.00 0.00 19 1004.6
20260504193726 27 268 19.3 37.0 0.00 0.00 0.00 18 1004.6
20260504193624 27 263 22.5 37.0 0.00 0.00 0.00 18 1004.6
20260504193518 27 286 24.1 37.0 0.00 0.00 0.00 18 1004.6
20260504193436 27 287 22.5 37.0 0.00 0.00 0.00 18 1004.5
20260504193318 27 269 22.5 37.0 0.00 0.00 0.00 17 1004.6
20260504193235 27 257 22.5 37.0 0.00 0.00 0.00 17 1004.5
20260504193133 27 271 25.7 37.0 0.00 0.00 0.00 17 1004.6
20260504193028 27 260 27.4 37.0 0.00 0.00 0.00 17 1004.5
20260504192929 27 278 29.0 37.0 0.00 0.00 0.00 18 1004.5
20260504192830 27 289 25.7 37.0 0.00 0.00 0.00 18 1004.6
20260504192727 27 261 17.7 32.2 0.00 0.00 0.00 18 1004.6
20260504192623 27 260 12.9 25.7 0.00 0.00 0.00 18 1004.6
20260504192524 27 253 14.5 25.7 0.00 0.00 0.00 18 1004.6
20260504192427 27 270 16.1 25.7 0.00 0.00 0.00 18 1004.7
20260504192326 27 278 16.1 32.2 0.00 0.00 0.00 18 1004.7
20260504192222 27 265 17.7 32.2 0.00 0.00 0.00 18 1004.7
20260504192124 27 267 17.7 32.2 0.00 0.00 0.00 18 1004.8
20260504192038 27 269 17.7 32.2 0.00 0.00 0.00 17 1004.7
20260504191934 27 268 17.7 32.2 0.00 0.00 0.00 18 1004.7
20260504191852 27 268 17.7 32.2 0.00 0.00 0.00 18 1004.7
20260504191727 27 281 19.3 32.2 0.00 0.00 0.00 17 1004.7
20260504191631 27 278 20.9 32.2 0.00 0.00 0.00 18 1004.7
20260504191524 27 293 24.1 32.2 0.00 0.00 0.00 18 1004.7
20260504191426 27 298 25.7 32.2 0.00 0.00 0.00 18 1004.7
20260504191327 27 292 22.5 32.2 0.00 0.00 0.00 18 1004.7
20260504191225 27 290 19.3 32.2 0.00 0.00 0.00 18 1004.7
20260504191146 27 287 16.1 32.2 0.00 0.00 0.00 18 1004.8
20260504191040 27 268 16.1 32.2 0.00 0.00 0.00 18 1004.8
20260504190925 27 290 19.3 32.2 0.00 0.00 0.00 18 1004.9
20260504190823 27 287 20.9 32.2 0.00 0.00 0.00 17 1004.8
20260504190719 27 284 20.9 32.2 0.00 0.00 0.00 18 1004.8
20260504190616 27 282 22.5 32.2 0.00 0.00 0.00 18 1004.8
20260504190531 27 286 22.5 32.2 0.00 0.00 0.00 18 1004.8
20260504190431 27 297 20.9 30.6 0.00 0.00 0.00 18 1004.8
20260504190330 27 290 20.9 29.0 0.00 0.00 0.00 18 1004.9
20260504190230 27 284 22.5 29.0 0.00 0.00 0.00 18 1004.9
20260504190132 27 278 19.3 29.0 0.00 0.00 0.00 19 1004.9
20260504190026 27 281 20.9 29.0 0.00 0.00 0.00 19 1004.9
20260504185921 27 296 22.5 29.0 0.00 0.00 0.00 18 1004.9
20260504185820 27 295 20.9 30.6 0.00 0.00 0.00 19 1004.8
20260504185738 27 275 19.3 30.6 0.00 0.00 0.00 19 1004.9
20260504185700 27 281 19.3 30.6 0.00 0.00 0.00 19 1004.8
20260504185556 27 294 17.7 30.6 0.00 0.00 0.00 19 1004.9
20260504185431 27 271 17.7 30.6 0.00 0.00 0.00 19 1004.9
20260504185350 27 286 17.7 30.6 0.00 0.00 0.00 18 1004.9
20260504185228 27 282 16.1 30.6 0.00 0.00 0.00 18 1004.9
20260504185131 27 282 17.7 30.6 0.00 0.00 0.00 18 1005.0
20260504185048 27 281 22.5 30.6 0.00 0.00 0.00 18 1005.0
20260504184925 27 300 20.9 30.6 0.00 0.00 0.00 18 1005.0
20260504184827 27 304 17.7 30.6 0.00 0.00 0.00 19 1005.0
20260504184723 27 284 19.3 32.2 0.00 0.00 0.00 19 1005.1
20260504184621 27 272 22.5 32.2 0.00 0.00 0.00 19 1005.0
20260504184515 27 286 20.9 32.2 0.00 0.00 0.00 19 1005.0
20260504184440 27 269 17.7 32.2 0.00 0.00 0.00 19 1004.9
20260504184320 27 273 16.1 32.2 0.00 0.00 0.00 19 1005.1
20260504184220 27 295 17.7 33.8 0.00 0.00 0.00 18 1005.2
20260504184118 27 307 20.9 33.8 0.00 0.00 0.00 19 1005.2
20260504184031 27 304 20.9 33.8 0.00 0.00 0.00 19 1005.2
20260504183949 27 275 20.9 33.8 0.00 0.00 0.00 18 1005.1
20260504183827 27 260 20.9 33.8 0.00 0.00 0.00 19 1005.2
20260504183725 27 247 20.9 33.8 0.00 0.00 0.00 19 1005.2
20260504183630 27 263 22.5 33.8 0.00 0.00 0.00 18 1005.2
20260504183524 27 299 25.7 33.8 0.00 0.00 0.00 18 1005.2
20260504183424 27 289 27.4 33.8 0.00 0.00 0.00 19 1005.1
20260504183325 27 279 24.1 33.8 0.00 0.00 0.00 19 1005.2
20260504183220 27 285 24.1 32.2 0.00 0.00 0.00 19 1005.2
20260504183139 27 265 22.5 27.4 0.00 0.00 0.00 19 1005.3
20260504183053 27 271 20.9 27.4 0.00 0.00 0.00 19 1005.3
20260504182929 27 276 19.3 27.4 0.00 0.00 0.00 19 1005.2
20260504182849 27 285 17.7 27.4 0.00 0.00 0.00 19 1005.3
20260504182729 27 276 16.1 27.4 0.00 0.00 0.00 18 1005.3
20260504182631 27 271 17.7 29.0 0.00 0.00 0.00 19 1005.4
20260504182525 27 269 20.9 29.0 0.00 0.00 0.00 19 1005.4
20260504182423 27 282 22.5 29.0 0.00 0.00 0.00 19 1005.5
20260504182323 27 295 22.5 29.0 0.00 0.00 0.00 19 1005.5
20260504182219 27 290 22.5 29.0 0.00 0.00 0.00 19 1005.5
20260504182141 27 284 20.9 29.0 0.00 0.00 0.00 19 1005.5
20260504182034 27 293 19.3 29.0 0.00 0.00 0.00 19 1005.5
20260504181951 27 312 19.3 29.0 0.00 0.00 0.00 18 1005.6
20260504181813 27 263 22.5 29.0 0.00 0.00 0.00 18 1005.6
20260504181734 27 263 20.9 29.0 0.00 0.00 0.00 18 1005.6
20260504181632 27 260 19.3 32.2 0.00 0.00 0.00 19 1005.6
20260504181525 27 273 14.5 32.2 0.00 0.00 0.00 19 1005.6
20260504181425 27 260 12.9 33.8 0.00 0.00 0.00 19 1005.7
20260504181323 27 271 16.1 33.8 0.00 0.00 0.00 19 1005.6
20260504181239 27 270 19.3 33.8 0.00 0.00 0.00 18 1005.7
20260504181123 27 254 19.3 33.8 0.00 0.00 0.00 18 1005.8
20260504181020 27 246 20.9 33.8 0.00 0.00 0.00 19 1005.8
20260504180917 27 264 22.5 33.8 0.00 0.00 0.00 18 1005.8
20260504180818 27 269 24.1 33.8 0.00 0.00 0.00 18 1005.9
20260504180716 27 273 25.7 33.8 0.00 0.00 0.00 19 1005.8
20260504180616 27 275 25.7 33.8 0.00 0.00 0.00 19 1005.8
20260504180529 27 269 22.5 33.8 0.00 0.00 0.00 19 1005.8
20260504180450 27 292 24.1 33.8 0.00 0.00 0.00 19 1005.8
20260504180331 27 256 24.1 33.8 0.00 0.00 0.00 19 1005.9
20260504180222 27 279 25.7 33.8 0.00 0.00 0.00 19 1005.9
20260504180120 27 273 24.1 33.8 0.00 0.00 0.00 19 1005.9
20260504180017 27 273 20.9 29.0 0.00 0.00 0.00 19 1005.9
20260504175935 27 271 20.9 29.0 0.00 0.00 0.00 19 1006.0
20260504175833 27 284 22.5 29.0 0.00 0.00 0.00 19 1006.0
20260504175752 27 279 22.5 29.0 0.00 0.00 0.00 19 1006.1
20260504175614 27 265 22.5 33.8 0.00 0.00 0.00 20 1006.1
20260504175534 27 263 22.5 33.8 0.00 0.00 0.00 20 1006.1
20260504175432 27 260 22.5 33.8 0.00 0.00 0.00 20 1006.2
20260504175317 27 270 22.5 33.8 0.00 0.00 0.00 20 1006.1
20260504175236 26 267 22.5 33.8 0.00 0.00 0.00 20 1006.1
20260504175154 26 283 22.5 33.8 0.00 0.00 0.00 20 1006.2
20260504175027 26 267 19.3 33.8 0.00 0.00 0.00 20 1006.2
20260504174946 27 279 19.3 33.8 0.00 0.00 0.00 20 1006.2
20260504174832 27 284 22.5 33.8 0.00 0.00 0.00 20 1006.2
20260504174728 27 286 20.9 33.8 0.00 0.00 0.00 20 1006.2
20260504174627 26 251 16.1 33.8 0.00 0.00 0.00 20 1006.2
20260504174524 26 279 16.1 29.0 0.00 0.00 0.00 20 1006.2
20260504174425 26 253 17.7 29.0 0.00 0.00 0.00 20 1006.3
20260504174326 27 259 20.9 29.0 0.00 0.00 0.00 20 1006.3
20260504174223 26 252 22.5 29.0 0.00 0.00 0.00 20 1006.4
20260504174124 26 269 19.3 29.0 0.00 0.00 0.00 20 1006.4
20260504174018 26 270 16.1 29.0 0.00 0.00 0.00 21 1006.3
20260504173935 26 277 14.5 29.0 0.00 0.00 0.00 21 1006.4
20260504173838 26 286 16.1 29.0 0.00 0.00 0.00 21 1006.4
20260504173737 26 290 20.9 29.0 0.00 0.00 0.00 21 1006.4
20260504173633 26 305 20.9 29.0 0.00 0.00 0.00 21 1006.4
20260504173530 26 289 22.5 29.0 0.00 0.00 0.00 21 1006.4
20260504173427 26 300 20.9 29.0 0.00 0.00 0.00 21 1006.4
20260504173329 26 300 17.7 29.0 0.00 0.00 0.00 21 1006.4
20260504173226 26 294 17.7 27.4 0.00 0.00 0.00 21 1006.4
20260504173143 26 263 17.7 27.4 0.00 0.00 0.00 21 1006.5
20260504173036 26 292 16.1 27.4 0.00 0.00 0.00 21 1006.5
20260504172953 26 279 14.5 27.4 0.00 0.00 0.00 21 1006.5
20260504172854 26 262 16.1 27.4 0.00 0.00 0.00 21 1006.5
20260504172730 26 265 17.7 27.4 0.00 0.00 0.00 21 1006.5
20260504172627 26 281 19.3 27.4 0.00 0.00 0.00 21 1006.5
20260504172521 26 281 20.9 25.7 0.00 0.00 0.00 20 1006.5
20260504172424 26 273 20.9 25.7 0.00 0.00 0.00 21 1006.5
20260504172321 26 288 20.9 25.7 0.00 0.00 0.00 21 1006.5
20260504172219 26 287 17.7 25.7 0.00 0.00 0.00 21 1006.5
20260504172119 26 274 17.7 25.7 0.00 0.00 0.00 21 1006.5
20260504172033 26 258 19.3 25.7 0.00 0.00 0.00 21 1006.5
20260504171932 26 285 20.9 25.7 0.00 0.00 0.00 21 1006.5
20260504171851 26 292 20.9 25.7 0.00 0.00 0.00 21 1006.5
20260504171729 26 289 19.3 25.7 0.00 0.00 0.00 21 1006.5
20260504171630 26 259 17.7 25.7 0.00 0.00 0.00 21 1006.5
20260504171524 26 286 17.7 25.7 0.00 0.00 0.00 21 1006.5
20260504171420 26 281 19.3 30.6 0.00 0.00 0.00 21 1006.6
20260504171343 26 286 17.7 30.6 0.00 0.00 0.00 21 1006.6
20260504171242 26 288 17.7 30.6 0.00 0.00 0.00 20 1006.6
20260504171118 26 268 19.3 30.6 0.00 0.00 0.00 21 1006.7
20260504171034 26 267 20.9 30.6 0.00 0.00 0.00 21 1006.6
20260504170930 26 271 20.9 30.6 0.00 0.00 0.00 21 1006.6
20260504170848 26 273 19.3 30.6 0.00 0.00 0.00 21 1006.7
20260504170723 26 267 19.3 30.6 0.00 0.00 0.00 21 1006.7
20260504170623 26 286 20.9 30.6 0.00 0.00 0.00 21 1006.7
20260504170515 26 272 24.1 30.6 0.00 0.00 0.00 21 1006.7
20260504170416 26 284 22.5 30.6 0.00 0.00 0.00 22 1006.7
20260504170314 26 275 20.9 30.6 0.00 0.00 0.00 21 1006.7
20260504170233 26 300 22.5 30.6 0.00 0.00 0.00 22 1006.7
20260504170129 26 284 22.5 30.6 0.00 0.00 0.00 21 1006.7
20260504160417 26 275 29.0 35.4 0.00 0.00 0.00 21 1007.1
20260504160320 26 290 29.0 35.4 0.00 0.00 0.00 21 1007.0
20260504160217 26 286 25.7 35.4 0.00 0.00 0.00 22 1007.1
20260504160134 26 279 24.1 35.4 0.00 0.00 0.00 22 1007.1
20260504151142 23 298 25.7 37.0 0.00 0.00 0.00 23 1007.6
20260504151018 23 300 27.4 37.0 0.00 0.00 0.00 23 1007.6
20260504150916 23 301 27.4 37.0 0.00 0.00 0.00 23 1007.6
20260504150818 23 319 24.1 37.0 0.00 0.00 0.00 23 1007.7
20260504150719 23 304 22.5 35.4 0.00 0.00 0.00 24 1007.7
20260504150622 23 296 24.1 35.4 0.00 0.00 0.00 23 1007.7
20260504150516 23 297 25.7 35.4 0.00 0.00 0.00 23 1007.7
20260504150434 23 287 25.7 35.4 0.00 0.00 0.00 23 1007.7
20260504150331 23 290 29.0 35.4 0.00 0.00 0.00 23 1007.7
20260504150251 23 296 29.0 38.6 0.00 0.00 0.00 23 1007.7
20260504150127 23 303 27.4 38.6 0.00 0.00 0.00 23 1007.7